Location: Boursonne
(49.2024°N, 3.0468°E)
Time: 00:23:09
(UTC+00:00)

Meteor 1-11 Rocket - Pass Details

Date: 03 March 2021
Orbit: 831 x 916 km, 81.2° (Epoch: 14 April)

Event Time Altitude Azimuth Distance (km) Brightness Sun altitude
Rises 19:24:15 0° 176° (S) 3,464 6.7 -18.7°
Reaches altitude 10° 19:26:45 10° 173° (S) 2,517 6.0 -19.1°
Maximum altitude 19:32:19 57° 96° (E) 1,008 3.7 -19.9°
Drops below altitude 10° 19:37:48 10° 19° (NNE) 2,481 6.1 -20.8°
Sets 19:40:14 0° 16° (NNE) 3,411 6.9 -21.2°
